New York, NY

9:53 PM EST on December 13, 2019 (GMT -0500)
La Guardia

Weather History for KLGA - October, 2019

Change the Weather History Date:

Thursday, October 24, 2019

  Actual Average Record
Temperature  
Mean Temperature 60 °F 55 °F  
Max Temperature 68 °F 62 °F 80 °F (2001)
Min Temperature 52 °F 48 °F 30 °F (1969)
Degree Days  
Heating Degree Days 5 10  
Month to date heating degree days 114 160  
Since 1 July heating degree days 117 195  
Cooling Degree Days 0 0  
Month to date cooling degree days 29 20  
Year to date cooling degree days 1484 1210  
Growing Degree Days 10 (Base 50)    
Moisture  
Dew Point 34 °F    
Average Humidity 40    
Maximum Humidity 51    
Minimum Humidity 24    
Precipitation  
Precipitation 0.00 in 0.12 in 1.43 in (1959)
Month to date precipitation 3.64 2.97  
Year to date precipitation 40.12 36.95  
Snow  
Snow 0.00 in 0.00 in - ()
Month to date snowfall 0.0 0.0  
Since 1 July snowfall 0.0 0.0  
Snow Depth 0.00 in    
Sea Level Pressure  
Sea Level Pressure 30.27 in    
Wind  
Wind Speed 7 mph ()    
Max Wind Speed 17 mph    
Max Gust Speed 21 mph    
Visibility 10.0 miles    
Events      
T = Trace of Precipitation, MM = Missing Value Source: Averaged Metar Reports

Daily Weather History Graph

Daily Weather History Graph

Search for Another Location

Airport or City:

Astronomy

Oct. 24, 2019 Rise Set
Actual Time 7:16 AM EDT 6:02 PM EDT
Civil Twilight 6:48 AM EDT 6:30 PM EDT
Nautical Twilight 6:16 AM EDT 7:02 PM EDT
Astronomical Twilight 5:44 AM EDT 7:34 PM EDT
Moon 2:40 AM EDT (10/24) 4:30 PM EDT (10/24)
Length of Visible Light 11h 41m
Length of Day
10h 45m
Waning Crescent, 17% of the Moon is Illuminated
Oct 24
Waning Crescent
Oct 27
New
Nov 4
First Quarter
Nov 12
Full
Nov 19
Last Quarter

Hourly Weather History & Observations

Time (EDT) Temp. Dew Point Humidity Pressure Visibility Wind Dir Wind Speed Gust Speed Precip Events Conditions
12:51 AM 55.9 °F 32.0 °F 40% 30.18 in 10.0 mi West 9.2 mph - N/A   Clear
1:51 AM 55.9 °F 33.1 °F 42% 30.20 in 10.0 mi WNW 10.4 mph - N/A   Clear
2:51 AM 55.0 °F 34.0 °F 45% 30.22 in 10.0 mi WNW 9.2 mph - N/A   Clear
3:51 AM 54.0 °F 32.0 °F 43% 30.22 in 10.0 mi WNW 8.1 mph - N/A   Clear
4:51 AM 53.1 °F 32.0 °F 45% 30.24 in 10.0 mi WNW 5.8 mph - N/A   Clear
5:51 AM 53.1 °F 32.0 °F 45% 30.27 in 10.0 mi Calm Calm - N/A   Clear
6:51 AM 54.0 °F 30.9 °F 41% 30.29 in 10.0 mi West 5.8 mph - N/A   Clear
7:51 AM 54.0 °F 33.1 °F 45% 30.30 in 10.0 mi Calm Calm - N/A   Clear
8:51 AM 55.0 °F 34.0 °F 45% 30.32 in 10.0 mi SSW 3.5 mph - N/A   Clear
9:51 AM 59.0 °F 34.0 °F 39% 30.33 in 10.0 mi Calm Calm - N/A   Clear
10:51 AM 61.0 °F 33.1 °F 35% 30.32 in 10.0 mi NNW 3.5 mph - N/A   Clear
11:51 AM 64.0 °F 34.0 °F 33% 30.32 in 10.0 mi Variable 4.6 mph - N/A   Clear
12:51 PM 66.0 °F 28.0 °F 24% 30.29 in 10.0 mi SW 10.4 mph - N/A   Clear
1:51 PM 66.0 °F 28.9 °F 25% 30.27 in 10.0 mi SW 8.1 mph - N/A   Clear
2:51 PM 66.9 °F 30.9 °F 26% 30.27 in 10.0 mi SSW 12.7 mph - N/A   Clear
4:51 PM 64.0 °F 35.1 °F 34% 30.27 in 10.0 mi SSE 16.1 mph - N/A   Clear
5:51 PM 62.1 °F 37.9 °F 41% 30.27 in 10.0 mi South 12.7 mph - N/A   Partly Cloudy
6:51 PM 61.0 °F 39.9 °F 46% 30.28 in 10.0 mi South 9.2 mph - N/A   Partly Cloudy
7:51 PM 60.1 °F 39.0 °F 46% 30.27 in 10.0 mi South 11.5 mph - N/A   Partly Cloudy
8:51 PM 60.1 °F 37.9 °F 44% 30.28 in 10.0 mi SSW 10.4 mph - N/A   Clear
9:51 PM 60.1 °F 39.0 °F 46% 30.29 in 10.0 mi SSW 10.4 mph - N/A   Clear
10:51 PM 59.0 °F 39.9 °F 49% 30.31 in 10.0 mi SW 5.8 mph - N/A   Partly Cloudy
11:51 PM 57.9 °F 39.9 °F 51% 30.30 in 10.0 mi SW 9.2 mph - N/A   Partly Cloudy